Вернуться в каталог

ATLAS 5 CENTAUR DEB

АктивенHEO
NORAD 43952·DEBRIS·🇺🇸 United States

Запущен Sep 17, 2014 с Cape Canaveral Space Force Station

Loading…

Ближайшие Пролёты (ближайшие 24 часа)

TLE

СвежийSource: Space-Track

Эпоха: Sep 13, 2026, 07:39 UTC

1 43952U 14055F   26256.31944425 -.00000245  00000-0  00000-0 0  9993
2 43952  21.4606  67.1914 5126952 306.6843  16.2438  1.97446791 57770

Отслеживайте ATLAS 5 CENTAUR DEB в реальном времени с AllMySat

Download on the App Store